Regional Weather Roundup
Issued by NWS Newport/Morehead, NC

Current Version | Previous Version | Graphics & Text | Print | Product List | Glossary On
Versions: 1 2 3 4 5 6 7 8 9 10 11 12 13 14 15 16 17 18 19 20 21 22 23 24 25 26 27 28 29 30 31 32 33 34 35 36 37 38 39 40 41 42 43 44 45 46 47 48 49 50
000 ASUS42 KMHX 231822 RWRMHX WEATHER ROUNDUP FOR EASTERN NORTH CAROLINA NATIONAL WEATHER SERVICE NEWPORT/MOREHEAD CITY NC 200 PM EDT TUE SEP 23 2014 NOTE: "FAIR" INDICATES FEW OR NO CLOUDS BELOW 12,000 FEET WITH NO SIGNIFICANT WEATHER AND/OR OBSTRUCTIONS TO VISIBILITY NCZ015>017-031-032-045>047-102-103-231900- NORTH COAST CITY SKY/WX TMP DP RH WIND PRES REMARKS EDENTON CLOUDY 65 57 76 N6 30.28F ELIZABETH CITY CLOUDY 65 56 72 N14 30.29F KITTY HAWK CLOUDY 68 58 69 N14 30.24F MANTEO CLOUDY 68 57 68 NE16 30.25F $$ NCZ045>047-081-094-103-104-231900- CENTRAL COAST CITY SKY/WX TMP DP RH WIND PRES REMARKS FRISCO LGT RAIN 67 62 84 NE10G24 30.20F SWANQUARTER N/A 64 N/A N/A N13 30.18F $$ NCZ095-097-098-100-101-231900- SOUTHERN COAST CITY SKY/WX TMP DP RH WIND PRES REMARKS BEAUFORT LGT RAIN 69 62 78 N17G25 30.19F CEDAR ISLAND N/A 68 N/A N/A N24G33 30.24S JACKSONVILLE LGT RAIN 63 58 83 N12 30.22F NEWPORT NOT AVBL PINEY ISLAND LGT RAIN 70 60 70 N18G28 30.20F WILMINGTON LGT RAIN 63 60 90 N10 30.20F $$ NCZ011>013-027>030-043-044-078>080-089-090>093-098-231900- COASTAL PLAIN CITY SKY/WX TMP DP RH WIND PRES REMARKS AHOSKIE CLOUDY 63 52 67 N8 30.31F CLINTON LGT RAIN 65 56 72 N7 30.26S ELIZABETHTOWN LGT RAIN 63 57 82 NW3 30.24F GOLDSBORO CLOUDY 64 57 80 N5G18 30.25F GREENVILLE CLOUDY 63 54 72 N10G16 30.29F HAVELOCK LGT RAIN 65 61 87 N15 30.23F KENANSVILLE CLOUDY 64 54 68 N9G16 30.25F KINSTON CLOUDY 64 54 68 N12 30.27F NEW BERN LGT RAIN 65 59 81 N12 30.25S RICHLANDS CLOUDY 64 54 68 N13 30.23F ROANOKE RAPIDS NOT AVBL ROCKY MOUNT CLOUDY 62 51 67 N10 30.31F WASHINGTON CLOUDY 63 55 77 N9 30.28S WHITEVILLE CLOUDY 64 57 80 N3 30.22S $$ AMZ130-135-150-152-154-156-158-170-250-252-270-ANZ085-086-088-633-658-670-231900- MARINE OBSERVATIONS STATION/POSITION TIME TEMP WIND PRES WAVE SWELL AIR SEA DIR/SP/G HT/PER HT/PER (UTC) (F) (DEG/KT/KT) (MB) (FT/S) (FT/S) CHESAPEAKE LIGHT 1800 64 30/ 14/ 15 1026.5 BUOY 44014 1800 68 75 40/ 14/ 17 1024.9 4/ 6 2/ 8 DUCK 1800 68 74 30/ 16/ 19 1024.3 2E DUCK 1800 N/A 4/ 6 OREGON INLET 1800 69 73 10/ 16/ 19 1023.8 BUOY 44095 1800 74 N/A 5/ 6 20E OREGON INLET NOT AVBL HATTERAS CG NOT AVBL DIAMOND BUOY 1800 73 10/ 25/ 31 1021.2 6/ 6 2/10 CAPE LOOKOUT 1800 69 20/ 18/ 22 1021.9 BEAUFORT LAB 1800 68 75 20/ 13/ 21 1021.9 30 SE NEW RIVER 1800 72 82 30/ 27/ 31 1020.0 7/ 7 5 SE WRIGHTSVILL 1800 64 78 20/ 21/ 25 N/A BUOY 41002 1652 77 80 100/ 14/ 16 1019.0 3/ 7 3/ 7 BUOY 41004 1800 77 81 40/ 19/ 23 1018.8 7/ 6 2/ 9 $$

USA.gov is the U.S. government's official web portal to all federal, state and local government web resources and services.